Torna al catalogo

KUIPER-00127

AttivoComunicazioniLEO
NORAD 65956·PAYLOAD·🇺🇸 United States

Lanciato Oct 14, 2025 da Cape Canaveral Space Force Station

Loading…

Prossimi Passaggi (prossime 24 ore)

TLE

AggiornatoSource: CelesTrak SupGP

Epoca: Sep 14, 2026, 22:39 UTC

1 65956C 25228K   26257.94383102 -.00014452  00000+0 -18919-2 0  2576
2 65956  51.8995 236.1836 0000796  49.1263 337.1692 14.79944442    16

Traccia KUIPER-00127 in tempo reale con AllMySat

Download on the App Store